Location: Caltech
(34.1382°N, 118.1253°W)
Time: 09:09:20
(UTC-07:00)

HO-68 - Visible Passes

Search period start: 19 October 2017 00:00
Search period end: 29 October 2017 00:00
Orbit: 1193 x 1204 km, 100.1° (Epoch: 19 October)

Date Brightness Start Highest point End Pass type
(mag) Time Alt. Az. Time Alt. Az. Time Alt. Az.
19 Oct ? 06:29:11 10° ENE 06:32:00 12° E 06:34:47 10° ESE visible
19 Oct ? 18:37:34 10° SE 18:44:17 46° ENE 18:51:03 10° N visible
19 Oct ? 20:26:06 10° SSW 20:32:06 29° W 20:38:09 10° NW visible
20 Oct ? 20:08:30 10° SSW 20:15:03 39° W 20:21:41 10° NNW visible
21 Oct ? 19:51:08 10° S 19:58:03 52° W 20:05:03 10° NNW visible
22 Oct ? 19:33:59 10° S 19:41:06 70° WSW 19:48:17 10° NNW visible
23 Oct ? 19:17:01 10° SSE 19:24:11 89° ENE 19:31:25 10° NNW visible
23 Oct ? 21:09:47 10° WSW 21:12:38 13° W 21:15:29 10° WNW visible
24 Oct ? 19:00:13 10° SSE 19:07:18 69° ENE 19:14:26 10° N visible
24 Oct ? 20:50:51 10° SW 20:55:29 18° W 21:00:11 10° NW visible
25 Oct ? 06:34:35 10° ENE 06:38:20 15° E 06:42:02 10° ESE visible
25 Oct ? 18:43:36 10° SE 18:50:28 52° ENE 18:57:23 10° N visible
25 Oct ? 20:32:42 10° SSW 20:38:23 25° W 20:44:07 10° NW visible
26 Oct ? 18:27:10 10° SE 18:33:41 39° ENE 18:40:13 10° N visible
26 Oct ? 20:14:58 10° SSW 20:21:20 34° W 20:27:45 10° NW visible
27 Oct ? 19:57:31 10° S 20:04:19 46° W 20:11:11 10° NNW visible
28 Oct ? 19:40:17 10° S 19:47:20 62° WSW 19:54:28 10° NNW visible
